Home > Weather > Hay River > Past weeks

Flag for Canada Weather for the Past 2 Weeks in Hay River, Northwest Territories, Canada

Now
48 °F

Clear.


Feels Like: 44 °F
Forecast: 37 / 50 °F
Wind: 9 mph from Southeast

Location: Hay River

Current Time: Apr 29, 2016 at 2:56:48 AM

Latest Report: Apr 29, 2016 at 2:00 AM


Visibility: 15 mi

Pressure: 29.91 "Hg

Humidity: 58%

Dew Point: 34 °F

Location of Hay RiverLocation

Historic Weather in Hay River — Graph

°F

Hay River Temperature Yesterday

Maximum temperature yesterday: 64 °F (at 4:00 PM)
Minimum temperature yesterday: 28 °F (at 2:00 AM)
Average temperature yesterday: 49 °F

High & Low Weather Summary for the Past Weeks

 TemperatureHumidityPressure
High64 °F (Apr 18, 5:00 PM)100% (Apr 27, 7:00 PM)30.60 "Hg (Apr 27, 7:00 PM)
Low10 °F (Apr 14, 6:00 AM)28% (Apr 14, 7:00 PM)29.35 "Hg (Apr 18, 11:00 PM)
Average31 °F71%30.14 "Hg
* Reported Apr 14 1:00 AM — Apr 29 1:00 AM, Hay River, Weather by CustomWeather, © 2016

Note: Actual official high and low records may vary slightly from our data, if they occured in-between our weather recording intervals... More about our weather records

Advertising

Hay River Weather History for the Previous 24 Hours

Scroll right to see more
 ConditionsComfort  
Time TempWeatherWind HumidityBarometerVisibility
1:00 AM
Fri, Apr 29
50 °FClear.9 mph58%29.91 "Hg15 mi
12:00 AM52 °FPassing clouds.9 mph54%29.91 "Hg15 mi
11:00 PM
Thu, Apr 28
55 °FPartly cloudy.9 mph47%29.92 "Hg15 mi
10:00 PM57 °FBroken clouds.12 mph44%29.91 "Hg15 mi
9:00 PM59 °FPartly sunny.6 mph48%29.90 "Hg15 mi
8:00 PM61 °FPartly sunny.7 mph48%29.91 "Hg15 mi
7:00 PM64 °FBroken clouds.8 mph43%29.92 "Hg15 mi
6:00 PM64 °FBroken clouds.10 mph43%29.94 "Hg15 mi
5:00 PM64 °FBroken clouds.9 mph43%29.96 "Hg15 mi
4:00 PM64 °FBroken clouds.9 mph43%29.96 "Hg15 mi
3:00 PM61 °FBroken clouds.10 mph52%29.98 "Hg15 mi
2:00 PM55 °FBroken clouds.6 mph59%30.01 "Hg15 mi
1:00 PM57 °FPartly sunny.14 mph51%30.02 "Hg15 mi
12:00 PM55 °FPartly sunny.14 mph59%30.03 "Hg15 mi
11:00 AM54 °FBroken clouds.10 mph63%30.04 "Hg15 mi
10:00 AM50 °FBroken clouds.12 mph62%30.04 "Hg15 mi
9:00 AM48 °FBroken clouds.14 mph66%30.06 "Hg15 mi
8:00 AM41 °FPartly sunny.8 mph81%30.07 "Hg15 mi
7:00 AM39 °FPartly sunny.8 mph87%30.08 "Hg15 mi
6:00 AM36 °FPassing clouds.8 mph93%30.10 "Hg15 mi
5:00 AM32 °FPassing clouds.2 mph93%30.10 "Hg15 mi
4:00 AM32 °FPassing clouds.6 mph100%30.10 "Hg15 mi
3:00 AM30 °FIce fog.2 mph93%30.11 "Hg6 mi
2:00 AM28 °FPassing clouds.2 mph100%30.12 "Hg15 mi
Weather by CustomWeather, © 2016

See weather overviewHow to use our weather pages